1502035200.95,97,24.75,74526.3,8.41,7.69,7.69,0,*4E
1502035202.19,98,24.75,74532.3,8.41,7.77,7.77,0,*41
1502035203.42,99,24.75,74530.0,8.41,7.87,7.83,0,*44
1502035204.66,100,24.75,74528.8,8.41,7.87,7.87,0,*71
1502035205.9,101,24.75,74530.8,8.41,7.87,7.95,0,*73
1502035207.15,102,24.75,74528.5,8.41,7.95,7.95,0,*73
1502035208.37,103,24.75,74530.3,8.41,7.95,7.97,0,*70
1502035209.55,104,24.75,74530.8,8.41,7.97,7.97,0,*75
1502035210.74,105,24.75,74528.3,8.41,7.97,8.05,0,*70
1502035211.89,106,24.75,74530.5,8.39,7.97,7.97,0,*78
1502035213.06,107,24.75,74530.3,8.45,8.05,8.01,0,*76
1502035214.25,108,24.75,74530.0,8.41,7.97,7.97,0,*79
1502035215.5,109,24.75,74532.0,8.41,7.95,7.95,0,*78
1502035216.69,110,24.75,74530.5,8.45,7.95,8.01,0,*76
1502035217.89,111,24.75,74528.3,8.45,7.95,8.05,0,*73
1502035219.08,112,24.75,74528.3,8.47,8.05,8.05,0,*74
1502035220.25,113,24.75,74534.0,8.45,8.05,8.05,0,*77
1502035221.44,114,24.75,74534.3,8.41,8.05,8.05,0,*74
1502035222.61,115,24.75,74530.8,8.45,8.05,8.01,0,*75
1502035223.78,116,24.75,74534.8,8.45,8.01,8.05,0,*76
1502035225.01,117,24.75,74534.8,8.47,7.95,8.05,0,*77
1502035226.23,118,24.75,74532.5,8.45,7.95,7.91,0,*78
1502035227.43,119,24.75,74530.8,8.45,7.95,8.01,0,*7F
1502035228.62,120,24.75,74530.0,8.45,7.91,8.01,0,*71
1502035229.8,121,24.75,74530.3,8.45,8.01,8.01,0,*76
1502035230.99,122,24.75,74534.3,8.45,7.95,8.01,0,*77
1502035232.17,123,24.75,74530.5,8.45,8.01,8.05,0,*70
1502035233.37,124,24.75,74534.0,8.45,8.13,8.05,0,*74
1502035234.62,125,24.75,74530.8,8.47,8.13,8.13,0,*70
1502035235.81,126,24.75,74534.8,8.47,8.15,8.15,0,*73
1502035236.99,127,24.75,74534.5,8.49,8.15,8.19,0,*70
1502035238.19,128,24.75,74534.0,8.47,8.15,8.23,0,*78
1502035239.39,129,24.75,74532.5,8.47,8.15,8.27,0,*7D
1502035240.56,130,24.75,74530.5,8.49,8.27,8.19,0,*77
1502035241.74,131,24.75,74534.3,8.45,8.15,8.15,0,*77
1502035242.93,132,24.75,74532.0,8.45,8.13,8.23,0,*77
1502035244.15,133,24.75,74534.0,8.47,8.13,8.23,0,*74
1502035245.35,134,24.69,74528.8,8.47,8.15,8.23,0,*75
1502035246.57,135,24.75,74536.5,8.47,8.13,8.15,0,*77
1502035247.75,136,24.75,74530.8,8.49,8.19,8.15,0,*70
1502035248.92,137,24.75,74532.5,8.49,8.19,8.19,0,*7D
1502035250.15,138,24.75,74532.5,8.47,8.15,8.13,0,*7A
1502035251.31,139,24.75,74530.5,8.49,8.09,8.09,0,*73
1502035252.51,140,24.75,74532.3,8.47,8.01,8.01,0,*73
1502035253.76,141,24.75,74532.0,8.47,7.95,7.95,0,*72
1502035254.98,142,24.75,74534.3,8.49,7.95,7.95,0,*7F
1502035256.2,143,24.75,74532.5,8.47,7.83,7.79,0,*75
1502035257.45,144,24.75,74530.8,8.47,7.77,7.77,0,*77
1502035258.67,145,24.75,74530.8,8.45,7.69,7.77,0,*7B
1502035259.92,146,24.75,74534.3,8.47,7.77,7.69,0,*7A
1502035261.15,147,24.75,74530.5,8.45,7.77,7.77,0,*76
1502035262.35,148,24.75,74534.5,8.45,7.77,7.79,0,*77
1502035263.58,149,24.75,74532.3,8.45,7.69,7.69,0,*78
1502035264.79,150,24.75,74532.3,8.45,7.65,7.65,0,*70
1502035265.99,151,24.75,74536.5,8.45,7.77,7.79,0,*7F
1502035267.21,152,24.75,74528.3,8.45,7.83,7.83,0,*72
1502035268.4,153,24.75,74534.0,8.45,7.79,7.83,0,*76
1502035269.6,154,24.75,74534.3,8.45,7.83,7.79,0,*71
1502035270.82,155,24.75,74532.8,8.45,7.83,7.83,0,*75
1502035272.06,156,24.75,74534.0,8.47,7.95,7.91,0,*70
1502035273.29,157,24.75,74534.8,8.45,7.91,7.95,0,*73
1502035274.51,158,24.75,74534.3,8.45,7.91,7.91,0,*78
1502035275.68,159,24.75,74530.0,8.45,8.01,8.01,0,*79
1502035276.85,160,24.75,74532.0,8.45,8.01,8.05,0,*77
1502035278.02,161,24.75,74532.0,8.45,8.05,8.05,0,*72
1502035279.21,162,24.75,74528.0,8.47,8.05,8.15,0,*72
1502035280.41,163,24.75,74530.0,8.45,8.13,8.15,0,*76
1502035281.58,164,24.75,74534.8,8.49,8.19,8.15,0,*77
1502035282.8,165,24.75,74530.8,8.47,8.13,8.15,0,*72
1502035284.03,166,24.75,74530.3,8.45,8.13,8.13,0,*75
1502035285.25,167,24.75,74534.3,8.45,8.13,8.13,0,*74
1502035286.48,168,24.75,74528.0,8.47,8.13,8.15,0,*7F
1502035287.7,169,24.75,74532.0,8.45,8.13,8.13,0,*7A
1502035288.92,170,24.75,74532.5,8.47,8.05,8.13,0,*77
1502035290.09,171,24.75,74532.5,8.45,8.05,8.05,0,*73
1502035291.26,172,24.75,74530.5,8.45,8.01,8.05,0,*74
1502035292.43,173,24.75,74530.5,8.45,8.01,8.01,0,*71
1502035293.62,174,24.75,74530.0,8.47,8.05,8.05,0,*74
1502035294.79,175,24.75,74530.0,8.45,8.05,8.05,0,*77
1502035296.04,176,24.75,74528.0,8.47,8.13,8.13,0,*76
1502035297.21,177,24.75,74530.0,8.49,8.15,8.15,0,*79
1502035298.44,178,24.75,74532.8,8.47,8.13,8.05,0,*7F
1502035299.65,179,24.75,74530.5,8.47,8.05,8.13,0,*7E
1502035300.85,180,24.69,74530.3,8.45,8.05,8.13,0,*7A
1502035302.07,181,24.75,74530.8,8.47,8.13,8.15,0,*78
1502035303.24,182,24.75,74532.3,8.49,8.15,8.19,0,*7F
1502035304.42,183,24.75,74532.0,8.49,8.15,8.19,0,*7E
1502035305.59,184,24.75,74534.8,8.49,8.15,8.15,0,*75
1502035306.76,185,24.75,74532.0,8.49,8.19,8.15,0,*78
1502035307.94,186,24.75,74532.0,8.49,8.15,8.15,0,*77
1502035309.11,187,24.75,74532.0,8.49,8.15,8.15,0,*76
1502035310.33,188,24.75,74538.3,8.47,8.13,8.15,0,*71
1502035311.58,189,24.75,74534.0,8.47,8.13,8.13,0,*76
1502035312.75,190,24.75,74534.8,8.49,8.15,8.15,0,*70
1502035313.92,191,24.75,74536.3,8.49,8.09,8.15,0,*7C
1502035315.09,192,24.75,74536.3,8.49,8.09,8.05,0,*7E
1502035316.25,193,24.75,74534.8,8.49,8.05,7.97,0,*77
1502035317.42,194,24.75,74534.3,8.49,8.09,8.05,0,*78
1502035318.59,195,24.75,74532.3,8.49,8.05,8.05,0,*75
1502035319.75,196,24.69,74530.5,8.49,8.09,8.05,0,*7A
1502035320.92,197,24.75,74532.5,8.49,8.05,7.97,0,*73
1502035322.09,198,24.75,74532.0,8.49,7.79,7.79,0,*78
1502035323.27,199,24.75,74534.5,8.49,7.79,7.79,0,*79
1502035324.48,200,24.75,74536.5,8.49,7.87,7.87,0,*7A
1502035325.67,201,24.75,74538.0,8.49,7.97,7.95,0,*79
1502035326.91,202,24.75,74538.5,8.51,7.87,7.87,0,*71
1502035328.11,203,24.75,74532.0,8.47,7.79,7.79,0,*77
1502035329.36,204,24.75,74532.5,8.47,7.77,7.77,0,*70
1502035330.61,205,24.75,74532.5,8.47,7.77,7.77,0,*71
1502035331.83,206,24.75,74534.8,8.45,7.65,7.69,0,*7C
1502035333.07,207,24.75,74532.5,8.47,7.69,7.65,0,*7F
1502035334.31,208,24.75,74538.5,8.47,7.69,7.65,0,*70
1502035335.51,209,24.75,74538.8,8.47,7.59,7.59,0,*7D
1502035336.7,210,24.75,74534.5,8.45,7.59,7.65,0,*78
1502035337.92,211,24.75,74536.8,8.45,7.65,7.65,0,*76
1502035339.14,212,24.75,74534.0,8.45,7.77,7.65,0,*76
1502035340.38,213,24.75,74532.0,8.41,7.47,7.47,0,*70
1502035341.57,214,24.69,74534.5,8.41,7.59,7.51,0,*7F
1502035342.77,215,24.75,74534.0,8.41,7.51,7.51,0,*76
1502035343.93,216,24.75,74534.8,8.39,7.51,7.51,0,*7A
1502035345.15,217,24.69,74532.5,8.41,7.47,7.51,0,*73
1502035346.33,218,24.75,74532.5,8.41,7.41,7.41,0,*7B
1502035347.5,219,24.75,74534.3,8.39,7.29,7.29,0,*75
1502035348.75,220,24.75,74534.0,8.41,7.27,7.19,0,*7D
1502035349.92,221,24.75,74532.3,8.39,7.29,7.29,0,*7E
1502035351.09,222,24.75,74532.0,8.39,7.29,7.29,0,*7D
1502035352.3,223,24.75,74534.0,8.39,7.19,7.27,0,*71
1502035353.51,224,24.69,74532.8,8.39,7.19,7.19,0,*7B
1502035354.69,225,24.75,74534.8,8.35,6.75,6.69,0,*7B
1502035355.88,226,24.75,74532.8,8.35,6.87,6.79,0,*74
1502035357.12,227,24.75,74534.5,8.33,6.91,6.91,0,*72
1502035358.34,228,24.75,74530.0,8.31,6.43,6.43,0,*7F
1502035359.5,229,24.75,74532.0,8.31,6.75,6.75,0,*7E
1502035360.73,230,24.75,74532.0,8.29,6.61,6.57,0,*7A
1502035361.96,231,24.75,74534.5,8.29,6.57,6.61,0,*7B
1502035363.21,232,24.75,74528.3,8.29,6.47,6.47,0,*7D
1502035364.43,233,24.75,74534.5,8.27,6.47,6.39,0,*7B
1502035365.66,234,24.75,74530.3,8.25,6.57,6.57,0,*77
1502035366.88,235,24.69,74526.5,8.23,6.51,6.51,0,*70
1502035368.09,236,24.75,74524.8,8.27,6.57,6.69,0,*7A
1502035369.3,237,24.75,74522.8,8.23,6.65,6.73,0,*75
1502035370.45,238,24.75,74520.8,8.23,6.75,6.75,0,*7D
1502035371.61,239,24.75,74520.3,8.23,6.75,6.75,0,*7C
1502035372.82,240,24.75,74518.8,8.23,6.73,6.73,0,*72
1502035374.06,241,24.69,74516.8,8.21,6.65,6.65,0,*71
1502035375.25,242,24.75,74522.8,8.21,6.75,6.75,0,*72
1502035376.46,243,24.69,74518.3,8.19,6.73,6.73,0,*78
1502035377.68,244,24.69,74516.5,8.19,6.73,6.69,0,*74
1502035378.87,245,24.69,74516.0,8.17,6.75,6.75,0,*70
1502035380.03,246,24.69,74514.5,8.19,6.83,6.83,0,*7D
1502035381.24,247,24.69,74516.3,8.17,6.87,6.83,0,*76
1502035382.48,248,24.75,74516.5,8.17,6.57,6.57,0,*7D
1502035383.71,249,24.75,74518.3,8.17,6.57,6.57,0,*7C
1502035384.92,250,24.69,74516.3,8.15,6.57,6.57,0,*76
1502035386.12,251,24.75,74518.8,8.15,6.57,6.57,0,*77
1502035387.31,252,24.75,74516.5,8.11,6.75,6.75,0,*70
1502035388.55,253,24.75,74518.8,8.11,6.87,6.87,0,*71
1502035389.7,254,24.75,74516.3,8.15,7.01,7.01,0,*72
1502035390.91,255,24.75,74518.0,8.15,7.11,7.11,0,*73
1502035392.1,256,24.69,74512.8,8.11,7.09,7.01,0,*7C
1502035393.33,257,24.75,74518.8,8.11,7.11,7.11,0,*75
1502035394.55,258,24.75,74518.0,8.15,7.23,7.27,0,*7A
1502035395.79,259,24.69,74514.8,8.11,7.11,7.11,0,*7B
1502035397.02,260,24.69,74512.5,8.11,7.11,7.19,0,*79
1502035398.18,261,24.75,74518.0,8.15,7.33,7.33,0,*74
1502035399.37,262,24.69,74512.8,8.11,7.33,7.29,0,*78
1502035400.53,263,24.75,74516.3,8.15,7.37,7.37,0,*76
1502035401.69,264,24.69,74514.5,8.15,7.45,7.37,0,*74
1502035402.85,265,24.75,74516.5,8.15,7.33,7.29,0,*7B
1502035404.01,266,24.69,74514.8,8.15,7.05,7.01,0,*77
1502035405.21,267,24.69,74514.8,8.11,7.29,7.29,0,*76
1502035406.36,268,24.69,74516.8,8.15,7.33,7.33,0,*7D
1502035407.57,269,24.75,74518.8,8.15,7.11,7.11,0,*7C
1502035408.82,270,24.75,74518.3,8.11,7.23,7.27,0,*74
1502035409.97,271,24.69,74516.3,8.15,7.37,7.33,0,*71
1502035411.13,272,24.69,74516.0,8.15,7.45,7.37,0,*73
1502035412.29,273,24.69,74516.5,8.15,7.45,7.45,0,*77
1502035413.5,274,24.75,74520.0,8.17,7.41,7.47,0,*74
1502035414.72,275,24.69,74518.8,8.11,7.23,7.29,0,*7F
1502035415.88,276,24.75,74520.0,8.15,7.37,7.33,0,*76
1502035417.04,277,24.75,74520.0,8.15,7.45,7.45,0,*73
1502035418.19,278,24.69,74518.0,8.15,7.45,7.45,0,*7C
1502035419.38,279,24.69,74520.3,8.11,7.41,7.33,0,*7C
1502035420.54,280,24.75,74522.8,8.15,7.45,7.45,0,*7B
1502035421.72,281,24.69,74520.5,8.11,7.41,7.41,0,*7E
1502035422.88,282,24.69,74518.8,8.15,7.45,7.45,0,*79
1502035424.04,283,24.69,74518.0,8.15,7.45,7.45,0,*78
1502035425.2,284,24.75,74520.5,8.15,7.45,7.45,0,*7F
1502035426.35,285,24.75,74522.8,8.15,7.45,7.45,0,*7E
1502035427.57,286,24.75,74522.0,8.17,7.41,7.47,0,*79
1502035428.73,287,24.75,74520.8,8.15,7.37,7.37,0,*7C
1502035429.88,288,24.75,74520.3,8.15,7.33,7.37,0,*77
1502035431.04,289,24.69,74522.0,8.15,7.37,7.37,0,*72
1502035432.23,290,24.75,74520.0,8.15,7.27,7.33,0,*7F
1502035433.45,291,24.75,74520.0,8.11,7.29,7.19,0,*7C
1502035434.66,292,24.75,74522.3,8.15,7.27,7.27,0,*78
1502035435.88,293,24.75,74522.3,8.15,7.23,7.15,0,*7C
1502035437.12,294,24.75,74522.0,8.11,6.91,6.91,0,*7A
1502035438.31,295,24.75,74520.0,8.11,7.09,7.09,0,*7B
1502035439.49,296,24.69,74518.8,8.11,7.09,7.01,0,*70
1502035440.7,297,24.75,74522.3,8.15,7.11,7.11,0,*7D
1502035441.91,298,24.69,74518.3,8.11,6.91,7.01,0,*7E
1502035443.13,299,24.75,74520.8,8.11,6.97,6.91,0,*71
1502035444.35,300,24.69,74520.3,8.11,6.91,6.97,0,*70
1502035445.51,301,24.75,74522.0,8.09,6.79,6.79,0,*7E
1502035446.67,302,24.69,74516.3,8.09,6.79,6.75,0,*71
1502035447.88,303,24.69,74520.8,8.07,6.75,6.73,0,*74
1502035449.09,304,24.75,74520.0,8.07,6.73,6.75,0,*73
1502035450.28,305,24.69,74522.8,8.07,6.83,6.75,0,*7D
1502035451.46,306,24.69,74522.8,8.07,6.83,6.75,0,*7E
1502035452.7,307,24.69,74520.5,8.07,6.87,6.87,0,*76
1502035453.94,308,24.69,74520.5,8.07,6.87,6.87,0,*79
1502035455.15,309,24.69,74520.5,8.07,6.87,6.93,0,*7D
1502035456.36,310,24.69,74520.5,8.07,6.93,6.87,0,*75
1502035457.58,311,24.69,74524.0,8.05,6.91,6.91,0,*73
1502035458.76,312,24.69,74524.8,8.07,6.97,7.05,0,*78
1502035459.95,313,24.69,74526.0,8.07,6.93,6.97,0,*77
1502035461.11,314,24.75,74524.8,8.05,7.01,6.93,0,*7C
1502035462.27,315,24.69,74520.3,8.05,6.93,7.01,0,*7D
1502035463.45,316,24.69,74520.5,8.03,7.01,6.93,0,*78
1502035464.64,317,24.69,74522.8,8.07,7.05,6.97,0,*7D
1502035465.83,318,24.69,74520.8,8.03,6.93,6.93,0,*7C
1502035467.02,319,24.75,74524.3,8.03,7.05,7.01,0,*79
1502035468.21,320,24.69,74522.8,8.03,7.05,7.05,0,*77
1502035469.4,321,24.69,74524.0,8.03,7.05,7.05,0,*76
1502035470.59,322,24.75,74524.8,8.03,7.05,7.05,0,*75
1502035471.81,323,24.69,74522.0,8.03,7.05,7.11,0,*71
1502035473.05,324,24.69,74524.0,8.03,7.11,7.11,0,*73
1502035474.29,325,24.69,74520.5,8.03,7.11,7.11,0,*72
1502035475.53,326,24.69,74522.3,8.03,7.23,7.23,0,*71
1502035476.75,327,24.69,74526.3,8.03,7.23,7.33,0,*71
1502035477.96,328,24.75,74524.8,8.03,7.27,7.33,0,*7A
1502035479.15,329,24.69,74522.3,8.03,7.33,7.33,0,*7E
1502035480.33,330,24.69,74526.3,8.03,7.33,7.33,0,*76
1502035481.52,331,24.69,74526.0,8.03,7.37,7.33,0,*73
1502035482.71,332,24.69,74524.5,8.03,7.37,7.37,0,*74
1502035483.87,333,24.69,74522.0,8.05,7.37,7.37,0,*73
1502035485.06,334,24.69,74524.8,8.03,7.37,7.41,0,*73
1502035486.25,335,24.69,74524.5,8.03,7.37,7.37,0,*73
1502035487.44,336,24.69,74526.3,8.03,7.37,7.41,0,*71
1502035488.6,337,24.69,74520.8,8.05,7.37,7.37,0,*77
1502035489.76,338,24.69,74526.3,8.05,7.37,7.41,0,*79
1502035490.95,339,24.69,74526.8,8.03,7.41,7.41,0,*7F
1502035492.19,340,24.69,74524.0,8.03,7.47,7.47,0,*71
1502035493.4,341,24.69,74522.3,8.05,7.47,7.47,0,*76
1502035494.61,342,24.69,74522.3,8.05,7.47,7.47,0,*75
1502035495.77,343,24.69,74526.5,8.05,7.41,7.41,0,*74
1502035496.93,344,24.75,74528.0,8.05,7.41,7.41,0,*73
1502035498.12,345,24.69,74526.8,8.03,7.37,7.41,0,*75
1502035499.28,346,24.69,74526.3,8.05,7.41,7.41,0,*71
1502035500.47,347,24.69,74524.8,8.03,7.37,7.37,0,*76
1502035501.65,348,24.69,74526.0,8.07,7.45,7.41,0,*79
1502035502.81,349,24.69,74524.5,8.05,7.37,7.37,0,*7E
1502035503.97,350,24.69,74522.8,8.05,7.37,7.37,0,*76
1502035505.16,351,24.69,74526.8,8.03,7.37,7.37,0,*71
1502035506.33,352,24.69,74524.5,8.05,7.37,7.37,0,*74
1502035507.48,353,24.69,74524.5,8.05,7.37,7.41,0,*74
1502035508.64,354,24.69,74526.3,8.05,7.41,7.41,0,*72
1502035509.8,355,24.69,74526.3,8.05,7.41,7.41,0,*73
1502035510.99,356,24.69,74524.5,8.05,7.47,7.51,0,*77
1502035512.18,357,24.69,74526.0,8.05,7.47,7.51,0,*76
1502035513.35,358,24.69,74524.0,8.05,7.37,7.37,0,*7E
1502035514.5,359,24.69,74526.3,8.05,7.37,7.33,0,*7B
1502035515.69,360,24.69,74526.3,8.07,7.41,7.37,0,*76
1502035516.87,361,24.69,74524.3,8.07,7.41,7.41,0,*76
1502035518.03,362,24.75,74526.5,8.05,7.41,7.37,0,*76
1502035519.19,363,24.69,74526.5,8.05,7.37,7.37,0,*76
1502035520.35,364,24.69,74526.0,8.05,7.41,7.41,0,*71
1502035521.51,365,24.69,74524.3,8.05,7.41,7.41,0,*70
1502035522.7,366,24.69,74526.5,8.07,7.51,7.51,0,*71
1502035523.91,367,24.69,74524.3,8.05,7.47,7.47,0,*72
1502035525.07,368,24.69,74524.8,8.05,7.37,7.37,0,*7D
1502035526.23,369,24.69,74526.0,8.05,7.33,7.37,0,*78
1502035527.39,370,24.69,74524.5,8.05,7.33,7.33,0,*74
1502035528.54,371,24.69,74522.3,8.05,7.33,7.33,0,*75
1502035529.7,372,24.69,74526.3,8.05,7.33,7.33,0,*76
1502035530.86,373,24.69,74524.8,8.05,7.37,7.37,0,*77
1502035532.02,374,24.69,74522.8,8.05,7.37,7.37,0,*70
1502035533.18,375,24.69,74522.5,8.05,7.37,7.37,0,*71
1502035534.34,376,24.69,74524.0,8.05,7.37,7.33,0,*76
1502035535.5,377,24.69,74520.8,8.05,7.37,7.37,0,*73
1502035536.66,378,24.69,74526.0,8.05,7.37,7.37,0,*7C
1502035537.82,379,24.69,74522.5,8.05,7.37,7.41,0,*7C
1502035538.98,380,24.69,74520.0,8.05,7.41,7.41,0,*7B
1502035540.16,381,24.69,74520.3,8.05,7.37,7.47,0,*7D
1502035541.35,382,24.69,74520.5,8.05,7.41,7.47,0,*7F
1502035542.5,383,24.69,74522.0,8.05,7.41,7.41,0,*78
1502035543.7,384,24.69,74522.3,8.07,7.55,7.51,0,*79
1502035544.89,385,24.69,74522.0,8.07,7.55,7.55,0,*7C
1502035546.05,386,24.69,74522.5,8.05,7.51,7.51,0,*7D
1502035547.22,387,24.69,74520.5,8.05,7.51,7.51,0,*7C
1502035548.38,388,24.69,74520.3,8.05,7.51,7.59,0,*7B
1502035549.62,389,24.69,74520.3,8.07,7.65,7.61,0,*74
1502035550.86,390,24.69,74518.3,8.07,7.65,7.65,0,*78
1502035552.08,391,24.75,74522.5,8.05,7.61,7.61,0,*7B
1502035553.3,392,24.69,74520.5,8.09,7.69,7.69,0,*74
1502035554.51,393,24.69,74516.0,8.09,7.65,7.73,0,*72
1502035555.76,394,24.69,74522.3,8.07,7.61,7.61,0,*7C
1502035557.0,395,24.69,74522.8,8.07,7.65,7.73,0,*7A
1502035558.22,396,24.69,74520.5,8.09,7.65,7.69,0,*7C
1502035559.43,397,24.69,74520.3,8.09,7.65,7.69,0,*7D
1502035560.63,398,24.69,74522.0,8.09,7.47,7.55,0,*7D
1502035561.8,399,24.69,74518.8,8.09,7.55,7.55,0,*7F
1502035562.97,400,24.69,74520.3,8.09,7.55,7.55,0,*78
1502035564.14,401,24.69,74522.0,8.09,7.55,7.55,0,*79
1502035565.33,402,24.69,74520.8,8.09,7.59,7.47,0,*75
1502035566.51,403,24.69,74522.8,8.09,7.59,7.47,0,*74
1502035567.69,404,24.69,74516.8,8.09,7.55,7.59,0,*70
1502035568.87,405,24.69,74522.0,8.07,7.51,7.51,0,*73
1502035570.04,406,24.69,74522.3,8.09,7.45,7.45,0,*7E
1502035571.22,407,24.69,74520.5,8.07,7.41,7.45,0,*75
1502035572.4,408,24.69,74518.0,8.07,7.45,7.45,0,*7E
1502035573.59,409,24.69,74520.3,8.09,7.47,7.45,0,*73
1502035574.78,410,24.69,74520.3,8.07,7.41,7.41,0,*77
1502035576.01,411,24.69,74522.0,8.11,7.47,7.47,0,*71
1502035577.23,412,24.69,74516.5,8.09,7.47,7.47,0,*7B
1502035578.41,413,24.69,74520.3,8.09,7.47,7.45,0,*78
1502035579.63,414,24.69,74520.5,8.09,7.47,7.47,0,*7D
1502035580.81,415,24.69,74520.0,8.07,7.41,7.41,0,*72
1502035581.99,416,24.69,74518.0,8.07,7.37,7.41,0,*70
1502035583.18,417,24.69,74518.5,8.07,7.37,7.37,0,*70
1502035584.34,418,24.69,74516.3,8.09,7.41,7.41,0,*71
1502035585.5,419,24.69,74520.3,8.09,7.45,7.45,0,*70
1502035586.68,420,24.69,74522.3,8.07,7.41,7.45,0,*70
1502035587.85,421,24.69,74518.8,8.09,7.41,7.37,0,*7A
1502035589.05,422,24.69,74518.0,8.07,7.29,7.29,0,*76
1502035590.28,423,24.69,74520.5,8.07,7.19,7.19,0,*77
1502035591.49,424,24.69,74520.5,8.07,7.09,7.15,0,*7D
1502035592.73,425,24.69,74522.0,8.07,7.27,7.19,0,*7C
1502035593.97,426,24.69,74522.0,8.07,7.27,7.27,0,*72
1502035595.16,427,24.69,74522.8,8.07,7.37,7.37,0,*73
1502035596.34,428,24.69,74522.8,8.07,7.37,7.37,0,*7C
1502035597.52,429,24.69,74520.3,8.07,7.41,7.45,0,*79
1502035598.71,430,24.69,74520.8,8.07,7.45,7.45,0,*75
1502035599.89,431,24.69,74520.3,8.07,7.41,7.51,0,*75
1502035601.09,432,24.69,74520.5,8.07,7.55,7.51,0,*73
1502035602.26,433,24.69,74522.0,8.09,7.55,7.55,0,*78
1502035603.44,434,24.69,74524.5,8.07,7.41,7.45,0,*75
1502035604.62,435,24.69,74522.8,8.07,7.45,7.41,0,*74
1502035605.8,436,24.69,74520.3,8.05,7.41,7.47,0,*77
1502035606.99,437,24.69,74522.5,8.07,7.51,7.55,0,*76
1502035608.16,438,24.69,74520.3,8.09,7.59,7.59,0,*73
1502035609.33,439,24.69,74522.8,8.09,7.59,7.59,0,*72
1502035610.57,440,24.69,74522.5,8.07,7.61,7.61,0,*72
1502035611.78,441,24.69,74524.0,8.07,7.61,7.55,0,*74
1502035612.95,442,24.69,74522.5,8.09,7.51,7.55,0,*7A
1502035614.16,443,24.69,74520.8,8.11,7.45,7.47,0,*74
1502035615.34,444,24.69,74520.5,8.07,7.45,7.41,0,*72
1502035616.53,445,24.69,74518.5,8.07,7.41,7.45,0,*73
1502035617.71,446,24.69,74522.8,8.07,7.45,7.45,0,*74
1502035618.89,447,24.69,74522.5,8.07,7.45,7.41,0,*71
1502035620.07,448,24.69,74522.3,8.07,7.45,7.45,0,*7A
1502035621.26,449,24.69,74522.0,8.07,7.45,7.45,0,*7B
1502035622.44,450,24.69,74520.0,8.07,7.41,7.41,0,*73
1502035623.62,451,24.69,74518.3,8.07,7.45,7.41,0,*76
1502035624.8,452,24.69,74520.5,8.07,7.41,7.41,0,*71
1502035626.01,453,24.69,74520.5,8.07,7.37,7.27,0,*71
1502035627.25,454,24.69,74522.3,8.07,7.19,7.19,0,*77
1502035628.48,455,24.69,74522.3,8.07,7.19,7.27,0,*7B
1502035629.69,456,24.69,74518.3,8.07,7.15,7.09,0,*78
1502035630.93,457,24.69,74518.0,8.07,7.19,7.15,0,*78
1502035632.14,458,24.69,74516.0,8.05,7.15,7.15,0,*79
1502035633.35,459,24.69,74514.0,8.05,7.15,7.23,0,*7D
1502035634.56,460,24.69,74514.8,8.05,7.27,7.23,0,*76
1502035635.72,461,24.69,74514.0,8.05,7.33,7.33,0,*73
1502035636.91,462,24.69,74508.5,8.03,7.33,7.37,0,*72
1502035638.09,463,24.69,74508.5,8.05,7.41,7.47,0,*77
1502035639.3,464,24.69,74514.8,8.05,7.47,7.47,0,*76
1502035640.49,465,24.69,74512.3,8.05,7.47,7.51,0,*70
1502035641.66,466,24.69,74512.3,8.05,7.51,7.51,0,*74
1502035642.85,467,24.69,74510.5,8.07,7.51,7.51,0,*77
1502035644.01,468,24.69,74510.5,8.05,7.41,7.41,0,*7A
1502035645.22,469,24.69,74510.5,8.05,7.47,7.47,0,*7B
1502035646.38,470,24.69,74510.8,8.05,7.51,7.51,0,*73
1502035647.55,471,24.69,74510.8,8.05,7.51,7.51,0,*72
1502035648.72,472,24.69,74512.3,8.05,7.51,7.51,0,*71
1502035649.88,473,24.69,74510.3,8.05,7.59,7.59,0,*70
1502035651.04,474,24.69,74508.8,8.05,7.59,7.59,0,*77
1502035652.21,475,24.69,74508.3,8.05,7.59,7.59,0,*76
1502035653.4,476,24.69,74514.0,8.09,7.59,7.65,0,*76
1502035654.58,477,24.69,74508.0,8.07,7.45,7.45,0,*76
1502035655.76,478,24.69,74508.0,8.07,7.41,7.45,0,*7D
1502035656.93,479,24.69,74510.3,8.09,7.45,7.41,0,*72
1502035658.11,480,24.69,74510.3,8.07,7.51,7.45,0,*7B
1502035659.3,481,24.69,74508.0,8.07,7.55,7.55,0,*7F
1502035660.52,482,24.69,74510.3,8.07,7.55,7.65,0,*7F
1502035661.75,483,24.69,74508.5,8.07,7.61,7.65,0,*79
1502035662.94,484,24.69,74510.8,8.07,7.51,7.51,0,*7A
1502035664.11,485,24.69,74514.3,8.09,7.55,7.55,0,*75
1502035665.3,486,24.69,74514.0,8.07,7.55,7.55,0,*78
1502035666.49,487,24.69,74508.0,8.07,7.51,7.55,0,*7D
1502035667.68,488,24.69,74508.5,8.07,7.51,7.55,0,*72
1502035668.89,489,24.69,74510.5,8.07,7.61,7.55,0,*70
1502035670.1,490,24.69,74510.5,8.09,7.65,7.65,0,*71
1502035671.34,491,24.69,74512.0,8.07,7.61,7.65,0,*7A
1502035672.51,492,24.69,74510.5,8.09,7.55,7.55,0,*73
1502035673.7,493,24.69,74510.5,8.07,7.55,7.55,0,*7C
1502035674.89,494,24.69,74508.5,8.07,7.55,7.51,0,*7F
1502035676.08,495,24.69,74510.5,8.09,7.47,7.45,0,*76
1502035677.25,496,24.69,74508.5,8.09,7.45,7.45,0,*77
1502035678.44,497,24.69,74508.5,8.07,7.29,7.29,0,*78
1502035679.66,498,24.69,74510.8,8.09,7.23,7.23,0,*79
1502035680.87,499,24.69,74508.3,8.09,7.11,7.11,0,*78
1502035682.06,500,24.69,74508.0,8.07,7.05,7.05,0,*77
1502035683.29,501,24.69,74508.8,8.07,7.15,7.15,0,*76
1502035684.53,502,24.69,74508.5,8.07,7.19,7.19,0,*75
1502035685.74,503,24.69,74512.3,8.05,7.15,7.23,0,*73
1502035686.95,504,24.69,74504.5,8.05,7.15,7.15,0,*71
1502035688.16,505,24.69,74508.5,8.05,7.23,7.23,0,*70
1502035689.38,506,24.69,74510.8,8.05,7.23,7.23,0,*73
1502035690.59,507,24.69,74508.0,8.05,7.15,7.15,0,*72
1502035691.8,508,24.69,74506.8,8.03,7.11,7.05,0,*7E
1502035692.96,509,24.69,74504.8,8.05,7.05,7.05,0,*7C
1502035694.2,510,24.69,74508.5,8.03,7.11,7.11,0,*72
1502035695.44,511,24.69,74508.5,8.03,7.11,7.11,0,*73
1502035696.68,512,24.69,74508.0,8.03,7.11,7.11,0,*70
1502035697.93,513,24.69,74506.5,8.03,7.15,7.11,0,*75
1502035699.14,514,24.69,74510.3,8.05,7.15,7.23,0,*75
1502035700.38,515,24.69,74508.8,8.03,7.23,7.23,0,*77
1502035701.62,516,24.69,74510.8,8.03,7.23,7.15,0,*71
1502035702.84,517,24.69,74508.3,8.05,7.27,7.23,0,*77
1502035704.05,518,24.69,74508.8,8.03,7.27,7.33,0,*7F
1502035705.24,519,24.69,74508.5,8.03,7.33,7.33,0,*7B
1502035706.42,520,24.69,74510.0,8.01,7.29,7.29,0,*73
1502035707.59,521,24.69,74512.0,8.01,7.29,7.29,0,*72
1502035708.78,522,24.69,74508.0,8.03,7.33,7.37,0,*77
1502035709.97,523,24.69,74510.8,8.03,7.37,7.37,0,*72
1502035711.16,524,24.69,74508.0,8.03,7.41,7.41,0,*75
1502035712.36,525,24.69,74506.5,8.03,7.41,7.37,0,*75
1502035713.57,526,24.69,74508.5,8.03,7.47,7.41,0,*71
1502035714.74,527,24.69,74508.0,8.01,7.45,7.37,0,*71
1502035715.95,528,24.69,74508.8,8.03,7.51,7.47,0,*7E
1502035717.14,529,24.69,74512.3,8.05,7.51,7.47,0,*79
1502035718.38,530,24.69,74510.5,8.03,7.47,7.47,0,*70
1502035719.56,531,24.69,74504.3,8.05,7.51,7.47,0,*70
1502035720.76,532,24.69,74510.3,8.05,7.51,7.61,0,*77
1502035721.92,533,24.69,74508.3,8.05,7.59,7.59,0,*75
1502035723.11,534,24.69,74508.5,8.05,7.59,7.61,0,*79
1502035724.33,535,24.69,74506.8,8.05,7.61,7.61,0,*73
1502035725.55,536,24.69,74504.0,8.05,7.61,7.69,0,*78
1502035726.77,537,24.69,74504.3,8.05,7.69,7.69,0,*71
1502035728.01,538,24.69,74504.3,8.07,7.65,7.73,0,*7B
1502035729.22,539,24.69,74504.8,8.05,7.69,7.73,0,*74
1502035730.44,540,24.69,74504.3,8.05,7.73,7.73,0,*71
1502035731.69,541,24.69,74504.0,8.07,7.73,7.77,0,*76
1502035732.93,542,24.69,74506.5,8.07,7.73,7.77,0,*75
1502035734.1,543,24.69,74504.5,8.09,7.79,7.79,0,*7E
1502035735.35,544,24.69,74502.5,8.07,7.77,7.77,0,*77
1502035736.58,545,24.69,74500.5,8.07,7.77,7.83,0,*7D
1502035737.82,546,24.69,74504.5,8.07,7.77,7.77,0,*75
1502035739.07,547,24.69,74502.8,8.07,7.73,7.77,0,*70
1502035740.31,548,24.69,74506.5,8.07,7.73,7.77,0,*7F
1502035741.48,549,24.69,74502.5,8.09,7.79,7.79,0,*74